Weather History for KSUT - January, 2014

Change the Weather History Date:

Monday, January 27, 2014

  Actual Average (KILM) Record (KILM)
Temperature  
Mean Temperature 52 °F 47 °F  
Max Temperature 57 °F 57 °F 78 °F (1952)
Min Temperature 46 °F 36 °F 14 °F (1940)
Degree Days  
Heating Degree Days 14 19  
Month to date heating degree days 513  
Since 1 July heating degree days 1397  
Cooling Degree Days 0 0  
Month to date cooling degree days 0  
Year to date cooling degree days 0  
Growing Degree Days 2 (Base 50)    
Moisture  
Dew Point 43 °F    
Average Humidity 75    
Maximum Humidity 94    
Minimum Humidity 56    
Precipitation  
Precipitation 0.00 in 0.12 in 2.56 in (1921)
Month to date precipitation 3.25  
Year to date precipitation 3.25  
Snow  
Snow 0.00 in 0.10 in 1.00 in (1927)
Month to date snowfall 0.4  
Since 1 July snowfall 1.2  
Snow Depth -    
Sea Level Pressure  
Sea Level Pressure 29.93 in    
Wind  
Wind Speed 7 mph (SW)    
Max Wind Speed 15 mph    
Max Gust Speed 21 mph    
Visibility 10 miles    
Events      
T = Trace of Precipitation, MM = Missing Value Source: NWS Daily Summary

Daily Weather History Graph

Daily Weather History Graph

Search for Another Location

Airport or City:

Trip Planner

Search our weather history database for the weather conditions in past years. The results will help you decide how hot, cold, wet, or windy it might be!

Date:

Astronomy

Jan. 27, 2014 Rise Set
Actual Time 7:12 AM EST 5:38 PM EST
Civil Twilight 6:45 AM EST 6:04 PM EST
Nautical Twilight 6:15 AM EST 6:34 PM EST
Astronomical Twilight 5:46 AM EST 7:04 PM EST
Moon 3:49 AM EST (1/27) 2:24 PM EST (1/27)
Length of Visible Light 11h 18m
Length of Day
10h 25m
Waning Crescent, 15% of the Moon is Illuminated
Jan 27
Waning Crescent
Jan 30
New
Feb 6
First Quarter
Feb 14
Full
Feb 22
Last Quarter

Hourly Weather History & Observations

Time (EST) Temp. Windchill Dew Point Humidity Pressure Visibility Wind Dir Wind Speed Gust Speed Precip Events Conditions
12:15 AM 48.2 °F - 39.7 °F 73% 29.97 in 10.0 mi WSW 6.9 mph - N/A   Clear
12:35 AM 48.2 °F - 39.6 °F 72% 29.97 in 10.0 mi WSW 9.2 mph - N/A   Clear
12:55 AM 48.2 °F - 40.3 °F 74% 29.97 in 10.0 mi SW 9.2 mph - N/A   Clear
1:15 AM 48.2 °F - 40.3 °F 74% 29.96 in 10.0 mi WSW 8.1 mph - N/A   Clear
1:35 AM 48.6 °F - 40.1 °F 73% 29.95 in 10.0 mi WSW 9.2 mph - N/A   Clear
1:55 AM 48.4 °F - 40.3 °F 74% 29.96 in 10.0 mi WSW 5.8 mph - N/A   Clear
2:15 AM 47.7 °F - 40.3 °F 76% 29.95 in 10.0 mi WSW 4.6 mph - N/A   Clear
2:35 AM 47.5 °F - 40.6 °F 77% 29.95 in 10.0 mi WSW 5.8 mph - N/A   Clear
2:55 AM 47.7 °F - 40.5 °F 76% 29.95 in 10.0 mi WSW 6.9 mph - N/A   Clear
3:15 AM 47.7 °F - 40.3 °F 76% 29.95 in 10.0 mi West 5.8 mph - N/A   Clear
3:35 AM 47.7 °F - 40.1 °F 75% 29.94 in 10.0 mi West 5.8 mph - N/A   Clear
3:55 AM 47.7 °F - 39.4 °F 73% 29.94 in 10.0 mi West 8.1 mph - N/A   Clear
4:15 AM 48.2 °F - 37.8 °F 67% 29.94 in 10.0 mi West 9.2 mph - N/A   Clear
4:35 AM 48.7 °F - 35.4 °F 60% 29.94 in 10.0 mi West 10.4 mph - N/A   Clear
4:55 AM 48.2 °F - 35.8 °F 62% 29.95 in 10.0 mi WSW 5.8 mph - N/A   Scattered Clouds
5:15 AM 47.7 °F - 38.3 °F 70% 29.94 in 10.0 mi WSW 4.6 mph - N/A   Scattered Clouds
5:35 AM 46.8 °F - 39.0 °F 74% 29.93 in 10.0 mi West 3.5 mph - N/A   Scattered Clouds
5:55 AM 46.4 °F - 39.0 °F 75% 29.93 in 10.0 mi Calm Calm - N/A   Scattered Clouds
6:15 AM 46.9 °F - 39.4 °F 75% 29.93 in 10.0 mi Calm Calm - N/A   Scattered Clouds
6:35 AM 46.8 °F - 40.1 °F 78% 29.93 in 10.0 mi WSW 4.6 mph - N/A   Scattered Clouds
6:55 AM 46.6 °F - 39.9 °F 78% 29.93 in 10.0 mi WSW 3.5 mph - N/A   Clear
7:15 AM 46.4 °F 44.3 °F 39.0 °F 75% 29.94 in 10.0 mi WSW 4.6 mph - N/A   Clear
7:35 AM 46.4 °F 45.2 °F 39.7 °F 78% 29.94 in 10.0 mi SSW 3.5 mph - N/A   Clear
7:55 AM 47.5 °F - 40.5 °F 77% 29.95 in 10.0 mi SSW 4.6 mph - N/A   Clear
8:15 AM 47.7 °F - 40.3 °F 76% 29.95 in 10.0 mi SSW 3.5 mph - N/A   Clear
8:35 AM 48.2 °F - 40.3 °F 74% 29.95 in 10.0 mi SW 4.6 mph - N/A   Clear
8:55 AM 51.3 °F - 41.2 °F 68% 29.94 in 10.0 mi SW 4.6 mph - N/A   Clear
9:15 AM 53.4 °F - 39.9 °F 60% 29.95 in 10.0 mi SW 6.9 mph - N/A   Clear
9:35 AM 53.1 °F - 41.7 °F 65% 29.96 in 10.0 mi SW 8.1 mph - N/A   Clear
9:55 AM 52.0 °F - 42.6 °F 70% 29.96 in 10.0 mi SW 6.9 mph - N/A   Clear
10:15 AM 53.8 °F - 42.8 °F 66% 29.96 in 10.0 mi SW 10.4 mph - N/A   Clear
10:35 AM 54.9 °F - 41.7 °F 61% 29.96 in 10.0 mi SW 11.5 mph - N/A   Clear
10:55 AM 55.4 °F - 42.1 °F 61% 29.96 in 10.0 mi WSW 11.5 mph 16.1 mph N/A   Clear
11:15 AM 55.2 °F - 41.2 °F 59% 29.96 in 10.0 mi SW 15.0 mph 20.7 mph N/A   Clear
11:35 AM 55.8 °F - 41.2 °F 58% 29.95 in 10.0 mi WSW 15.0 mph - N/A   Clear
11:55 AM 55.4 °F - 40.3 °F 57% 29.93 in 10.0 mi SW 10.4 mph 17.3 mph N/A   Clear
12:15 PM 55.8 °F - 40.3 °F 56% 29.92 in 10.0 mi WSW 12.7 mph 19.6 mph N/A   Clear
12:35 PM 55.9 °F - 41.2 °F 58% 29.90 in 10.0 mi SW 9.2 mph - N/A   Clear
12:55 PM 57.0 °F - 41.5 °F 56% 29.90 in 10.0 mi SW 9.2 mph 16.1 mph N/A   Clear
1:15 PM 57.2 °F - 42.8 °F 59% 29.89 in 10.0 mi SW 8.1 mph - N/A   Clear
1:35 PM 56.5 °F - 43.7 °F 62% 29.89 in 10.0 mi SW 11.5 mph 16.1 mph N/A   Clear
1:55 PM 57.0 °F - 44.1 °F 62% 29.88 in 10.0 mi SW 10.4 mph - N/A   Clear
2:15 PM 57.7 °F - 43.3 °F 59% 29.87 in 10.0 mi SSW 9.2 mph - N/A   Clear
2:35 PM 57.2 °F - 44.2 °F 62% 29.87 in 10.0 mi SSW 8.1 mph - N/A   Clear
2:55 PM 57.2 °F - 44.6 °F 63% 29.86 in 10.0 mi SW 5.8 mph - N/A   Clear
3:15 PM 57.2 °F - 44.1 °F 62% 29.86 in 10.0 mi SSW 6.9 mph - N/A   Clear
3:35 PM 56.3 °F - 44.8 °F 65% 29.86 in 10.0 mi SW 8.1 mph - N/A   Clear
3:55 PM 55.9 °F - 45.9 °F 69% 29.85 in 10.0 mi SW 8.1 mph - N/A   Clear
4:15 PM 55.4 °F - 46.4 °F 72% 29.85 in 10.0 mi SSW 6.9 mph - N/A   Clear
4:35 PM 54.9 °F - 46.6 °F 74% 29.85 in 10.0 mi SSW 5.8 mph - N/A   Clear
4:55 PM 54.5 °F - 47.3 °F 77% 29.86 in 10.0 mi SW 9.2 mph - N/A   Clear
5:15 PM 53.8 °F - 47.5 °F 79% 29.86 in 10.0 mi SW 8.1 mph - N/A   Clear
5:35 PM 53.1 °F - 48.0 °F 83% 29.86 in 10.0 mi SW 5.8 mph - N/A   Clear
5:55 PM 52.3 °F - 48.4 °F 86% 29.86 in 10.0 mi SW 8.1 mph - N/A   Clear
6:15 PM 52.2 °F - 49.1 °F 89% 29.87 in 10.0 mi WSW 6.9 mph - N/A   Clear
6:35 PM 51.6 °F - 49.1 °F 91% 29.89 in 10.0 mi WSW 8.1 mph - N/A   Clear
6:55 PM 51.3 °F - 49.1 °F 92% 29.90 in 10.0 mi WSW 8.1 mph - N/A   Clear
7:15 PM 51.3 °F - 49.1 °F 92% 29.91 in 10.0 mi WSW 6.9 mph - N/A   Clear
7:35 PM 51.3 °F - 49.3 °F 93% 29.92 in 10.0 mi WSW 5.8 mph - N/A   Clear
7:55 PM 50.5 °F - 48.6 °F 93% 29.92 in 10.0 mi WSW 4.6 mph - N/A   Clear
8:15 PM 50.4 °F - 48.6 °F 94% 29.93 in 7.0 mi West 5.8 mph - N/A   Clear
8:35 PM 50.2 °F - 48.2 °F 93% 29.94 in 7.0 mi WSW 8.1 mph - N/A   Clear
8:55 PM 50.2 °F - 48.2 °F 93% 29.94 in 10.0 mi WSW 6.9 mph - N/A   Clear
9:15 PM 50.4 °F - 48.2 °F 92% 29.95 in 10.0 mi WSW 6.9 mph - N/A   Clear
9:35 PM 50.4 °F - 48.2 °F 92% 29.95 in 10.0 mi West 6.9 mph - N/A   Clear
9:55 PM 50.9 °F - 48.6 °F 92% 29.95 in 10.0 mi WSW 6.9 mph - N/A   Clear
10:15 PM 51.3 °F - 48.7 °F 91% 29.96 in 10.0 mi WSW 9.2 mph - N/A   Clear
10:35 PM 51.3 °F - 48.6 °F 90% 29.96 in 10.0 mi SW 6.9 mph - N/A   Clear
10:55 PM 50.7 °F - 48.4 °F 92% 29.97 in 10.0 mi WSW 9.2 mph - N/A   Clear
11:15 PM 51.3 °F - 48.7 °F 91% 29.97 in 10.0 mi West 8.1 mph - N/A   Clear
11:35 PM 51.3 °F - 48.6 °F 90% 29.97 in 10.0 mi WSW 5.8 mph - N/A   Scattered Clouds
11:55 PM 51.1 °F - 48.4 °F 90% 29.98 in 10.0 mi West 6.9 mph - N/A   Scattered Clouds